This is the latest recevied weather packets stored in our database for station/object KE8CZD. If no packets are shown the sender has not sent any weather packets the latest 1 day(s).
| Time | Temp. | Humidity | Pressure | Rain* | Wind** | Luminosity | Snow |
|---|---|---|---|---|---|---|---|
| 1778103044 | 11.67° C | 35% | 1009.1 hPa | 0 mm | - | - | - |
| 1778102684 | 11.11° C | 35% | 1009.1 hPa | 0 mm | - | - | - |
| 1778102324 | 11.11° C | 35% | 1009.1 hPa | 0 mm | - | - | - |
| 1778101604 | 11.11° C | 35% | 1009.2 hPa | 0 mm | - | - | - |
| 1778101244 | 11.11° C | 36% | 1009.1 hPa | 0 mm | - | - | - |
| 1778100884 | 11.11° C | 37% | 1009.2 hPa | 0 mm | - | - | - |
| 1778099804 | 11.11° C | 37% | 1009.2 hPa | 0 mm | - | - | - |
| 1778099084 | 11.11° C | 35% | 1009.1 hPa | 0 mm | - | - | - |
| 1778098724 | 11.67° C | 34% | 1009.2 hPa | 0 mm | - | - | - |
| 1778098004 | 12.22° C | 32% | 1009.3 hPa | 0 mm | - | - | - |
| 1778097644 | 12.22° C | 33% | 1009.2 hPa | 0 mm | - | - | - |
| 1778096924 | 10.56° C | 36% | 1009.4 hPa | 0 mm | - | - | - |
| 1778096204 | 10.56° C | 38% | 1009.5 hPa | 0 mm | - | - | - |
| 1778093685 | 10.56° C | 36% | 1009.4 hPa | 0 mm | - | - | - |
| 1778093324 | 10.56° C | 36% | 0 hPa | 0 mm | - | - | - |
| 1778092605 | 10.56° C | 35% | 1009.3 hPa | 0 mm | - | - | - |
| 1778090806 | 10.56° C | 40% | 1009.4 hPa | 0 mm | - | - | - |
| 1778080725 | 9.44° C | 41% | 1009.2 hPa | 0 mm | - | - | - |
| 1778077845 | 8.89° C | 54% | 1009.1 hPa | 0 mm | - | - | - |
| 1778077485 | 8.33° C | 55% | 1009 hPa | 0 mm | - | - | - |
| 1778077125 | 8.89° C | 54% | 1009 hPa | 0 mm | - | - | - |
| 1778075686 | 8.89° C | 55% | 1008.8 hPa | 0 mm | - | - | - |
| 1778074604 | 8.33° C | 58% | 1008.5 hPa | 0 mm | - | - | - |
| 1778073885 | 8.33° C | 62% | 1008.4 hPa | 0 mm | - | - | - |
| 1778072806 | 7.78° C | 68% | 1008.3 hPa | 0 mm | - | - | - |
* Rain latest hour (hover to see other rain measurements)
** Current wind speed in m/s (hover to see current wind gust speed)